TimeCST,TemperatureF,Dew PointF,Humidity,Sea Level PressureIn,VisibilityMPH,Wind Direction,Wind SpeedMPH,Gust SpeedMPH,PrecipitationIn,Events,Conditions,WindDirDegrees,DateUTC
12:53 AM,35.1,34.0,96,29.60,3.0,ESE,8.1,-,N/A,,Overcast,110,2013-12-03 06:53:00
1:31 AM,35.6,33.8,93,29.59,3.0,SE,5.8,-,N/A,,Overcast,130,2013-12-03 07:31:00
1:53 AM,36.0,34.0,93,29.62,3.0,ESE,5.8,-,N/A,,Overcast,120,2013-12-03 07:53:00
2:53 AM,35.1,34.0,96,29.64,3.0,SE,5.8,-,N/A,,Overcast,130,2013-12-03 08:53:00
3:14 AM,35.6,33.8,93,29.60,2.5,ESE,6.9,-,N/A,,Overcast,120,2013-12-03 09:14:00
3:53 AM,36.0,34.0,93,29.63,2.5,ESE,5.8,-,N/A,,Overcast,120,2013-12-03 09:53:00
4:44 AM,35.6,33.8,93,29.61,1.8,ESE,5.8,-,N/A,,Overcast,110,2013-12-03 10:44:00
4:53 AM,36.0,35.1,97,29.65,1.5,East,5.8,-,N/A,,Overcast,100,2013-12-03 10:53:00
5:02 AM,35.6,35.6,100,29.62,0.8,East,5.8,-,N/A,,Overcast,100,2013-12-03 11:02:00
5:53 AM,35.1,35.1,100,29.65,0.8,ESE,9.2,-,N/A,,Mist,110,2013-12-03 11:53:00
6:53 AM,35.1,35.1,100,29.66,0.8,ESE,8.1,-,N/A,,Overcast,110,2013-12-03 12:53:00
7:53 AM,35.1,35.1,100,29.67,0.8,East,8.1,-,0.00,,Light Drizzle,80,2013-12-03 13:53:00
8:53 AM,35.1,35.1,100,29.69,0.8,East,6.9,-,0.00,,Light Drizzle,80,2013-12-03 14:53:00
9:53 AM,36.0,35.1,97,29.70,0.8,East,6.9,-,0.00,,Overcast,100,2013-12-03 15:53:00
10:53 AM,35.1,34.0,96,29.72,0.8,East,8.1,-,N/A,,Overcast,100,2013-12-03 16:53:00
11:09 AM,35.6,35.6,100,29.69,1.5,East,6.9,-,N/A,,Overcast,90,2013-12-03 17:09:00
11:43 AM,35.6,35.6,100,29.69,1.2,East,8.1,-,0.00,Rain-Snow,Light Rain,80,2013-12-03 17:43:00
11:53 AM,35.1,35.1,100,29.71,1.5,East,9.2,-,0.00,Rain-Snow,Light Snow,80,2013-12-03 17:53:00
12:05 PM,35.6,33.8,93,29.68,2.0,East,9.2,-,0.01,Rain-Snow,Light Snow,80,2013-12-03 18:05:00
12:24 PM,35.6,33.8,93,29.68,1.8,East,6.9,-,0.02,Snow,Light Snow,90,2013-12-03 18:24:00
12:39 PM,35.6,33.8,93,29.68,1.8,ENE,8.1,-,0.03,Rain-Snow,Light Snow,70,2013-12-03 18:39:00
12:48 PM,35.6,33.8,93,29.68,2.5,ENE,8.1,-,0.03,Rain-Snow,Light Snow,70,2013-12-03 18:48:00
12:53 PM,35.1,34.0,96,29.71,2.5,ENE,9.2,-,0.03,Snow,Light Snow,60,2013-12-03 18:53:00
1:10 PM,33.8,33.8,100,29.68,1.8,ENE,8.1,-,0.00,Snow,Light Snow,70,2013-12-03 19:10:00
1:20 PM,33.8,33.8,100,29.68,1.0,East,9.2,-,0.01,Snow,Light Snow,80,2013-12-03 19:20:00
1:32 PM,35.6,33.8,93,29.67,1.5,East,10.4,-,0.02,Snow,Light Snow,90,2013-12-03 19:32:00
1:53 PM,35.1,33.1,92,29.69,1.5,ENE,9.2,-,0.03,Snow,Light Snow,60,2013-12-03 19:53:00
1:59 PM,35.6,33.8,93,29.67,2.0,ENE,8.1,-,0.00,Snow,Light Snow,70,2013-12-03 19:59:00
2:11 PM,35.6,33.8,93,29.68,3.0,ENE,8.1,-,0.00,Snow,Light Snow,60,2013-12-03 20:11:00
2:25 PM,35.6,33.8,93,29.68,4.0,NE,6.9,-,0.01,Snow,Light Snow,50,2013-12-03 20:25:00
2:42 PM,35.6,33.8,93,29.67,5.0,ENE,8.1,-,0.01,Snow,Light Snow,60,2013-12-03 20:42:00
2:53 PM,35.1,34.0,96,29.70,7.0,East,10.4,-,0.01,Snow,Light Snow,80,2013-12-03 20:53:00
3:53 PM,35.1,33.1,92,29.71,7.0,ENE,10.4,-,0.00,Snow,Light Snow,60,2013-12-03 21:53:00
4:22 PM,35.6,33.8,93,29.70,7.0,ENE,9.2,-,0.00,Snow,Light Snow,60,2013-12-03 22:22:00
4:53 PM,35.1,33.1,92,29.73,7.0,ENE,10.4,-,0.00,Snow,Light Snow,70,2013-12-03 22:53:00
5:53 PM,34.0,33.1,96,29.76,6.0,ENE,9.2,-,0.01,Snow,Light Snow,60,2013-12-03 23:53:00
6:53 PM,34.0,32.0,92,29.78,6.0,ENE,8.1,-,0.00,Snow,Light Snow,60,2013-12-04 00:53:00
7:53 PM,34.0,32.0,92,29.78,6.0,Variable,6.9,-,0.00,Snow,Light Snow,0,2013-12-04 01:53:00
8:00 PM,33.8,32.0,93,29.75,6.0,ENE,9.2,-,0.00,Snow,Light Snow,60,2013-12-04 02:00:00
8:21 PM,33.8,32.0,93,29.75,5.0,ENE,8.1,17.3,0.00,Snow,Light Snow,60,2013-12-04 02:21:00
8:53 PM,34.0,32.0,92,29.75,7.0,ENE,9.2,-,0.00,Snow,Light Snow,70,2013-12-04 02:53:00
9:53 PM,33.1,30.9,92,29.79,5.0,ENE,10.4,-,0.00,Snow,Light Snow,60,2013-12-04 03:53:00
10:12 PM,33.8,32.0,93,29.75,2.5,ENE,11.5,-,0.00,,Light Freezing Drizzle,60,2013-12-04 04:12:00
10:53 PM,32.0,30.9,96,29.80,3.0,NE,13.8,-,0.00,,Light Freezing Drizzle,50,2013-12-04 04:53:00
11:53 PM,32.0,30.9,96,29.79,6.0,East,10.4,-,0.00,,Light Freezing Drizzle,80,2013-12-04 05:53:00